Dubrovnik, Croatia

8:27 AM CET on December 13, 2017 (GMT +0100)
Cilipi

Weather History for LDDU - December, 2017

Change the Weather History Date:

Friday, December 1, 2017

  Actual Average (LYTV) Record (LYTV)
Temperature  
Mean Temperature 49 °F -  
Max Temperature 52 °F 58 °F 68 °F (2013)
Min Temperature 46 °F 41 °F 32 °F (2006)
Degree Days  
Heating Degree Days 16    
Moisture  
Dew Point 43 °F    
Average Humidity 79    
Maximum Humidity 100    
Minimum Humidity 62    
Precipitation  
Precipitation 0.12 in - - ()
Sea Level Pressure  
Sea Level Pressure 29.79 in    
Wind  
Wind Speed 7 mph ()    
Max Wind Speed 16 mph    
Max Gust Speed -    
Visibility 7.7 miles    
Events Rain    
Averages and records for this station are not official NWS values.
T = Trace of Precipitation, MM = Missing Value Source: Averaged Metar Reports

Daily Weather History Graph

Daily Weather History Graph

Search for Another Location

Airport or City:

Trip Planner

Search our weather history database for the weather conditions in past years. The results will help you decide how hot, cold, wet, or windy it might be!

Date:

Astronomy

Dec. 01, 2017 Rise Set
Actual Time 6:57 AM CET 4:14 PM CET
Civil Twilight 6:25 AM CET 4:46 PM CET
Nautical Twilight 5:50 AM CET 5:21 PM CET
Astronomical Twilight 5:16 AM CET 5:55 PM CET
Moon 3:06 PM CET (12/1) 3:48 AM CET (12/1)
Length of Visible Light 10h 20m
Length of Day
9h 17m
Waxing Gibbous, 93% of the Moon is Illuminated
Dec 1
Waxing Gibbous
Dec 3
Full
Dec 10
Last Quarter
Dec 18
New
Dec 26
First Quarter

Hourly Weather History & Observations

Time (CET) Temp. Windchill Dew Point Humidity Pressure Visibility Wind Dir Wind Speed Gust Speed Precip Events Conditions
12:00 AM 55.4 °F - 42.8 °F 63% 29.74 in 6.2 mi SW 5.8 mph - N/A   Scattered Clouds
12:30 AM 53.6 °F - 46.4 °F 77% 29.74 in 6.2 mi NW 5.8 mph - N/A   Partly Cloudy
1:00 AM 53 °F - 48 °F 77% 29.74 in 16 mi NW 6.7 mph - -   Partly Cloudy
1:00 AM 51.8 °F - 48.2 °F 88% 29.74 in 6.2 mi WNW 5.8 mph - N/A   Partly Cloudy
1:30 AM 51.8 °F - 44.6 °F 76% 29.74 in 6.2 mi NW 5.8 mph - N/A   Partly Cloudy
2:00 AM 51.8 °F - 46.4 °F 82% 29.74 in - WNW 4.6 mph - N/A   Clear
2:30 AM 51.8 °F - 46.4 °F 82% 29.74 in - NE 3.5 mph - N/A   Clear
3:00 AM 50.0 °F - 46.4 °F 87% 29.74 in 6.2 mi East 9.2 mph - N/A   Partly Cloudy
3:30 AM 51.8 °F - 39.2 °F 62% 29.74 in 6.2 mi East 5.8 mph - N/A   Scattered Clouds
4:00 AM 51 °F - 42 °F 64% 29.77 in 16 mi East 8.9 mph - -   Partly Cloudy
4:00 AM 50.0 °F - 42.8 °F 76% 29.77 in 6.2 mi East 9.2 mph - N/A   Scattered Clouds
5:00 AM 50.0 °F - 41.0 °F 71% 29.77 in 6.2 mi East 9.2 mph - N/A   Scattered Clouds
6:00 AM 48.2 °F - 41.0 °F 76% 29.77 in 6.2 mi ENE 10.4 mph - N/A Rain Light Rain
6:30 AM 48.2 °F - 41.0 °F 76% 29.77 in 6.2 mi East 9.2 mph - N/A   Scattered Clouds
7:00 AM 47 °F - 41 °F 73% 29.81 in 16 mi East 8.9 mph - - Rain Light Rain
7:00 AM 46.4 °F 41.9 °F 41.0 °F 81% 29.80 in 6.2 mi East 9.2 mph - N/A   Scattered Clouds
7:30 AM 46.4 °F 41.9 °F 41.0 °F 81% 29.80 in 6.2 mi ENE 9.2 mph - N/A   Partly Cloudy
8:00 AM 48.2 °F - 41.0 °F 76% 29.80 in 6.2 mi East 10.4 mph - N/A   Partly Cloudy
8:30 AM 46.4 °F 41.5 °F 42.8 °F 87% 29.80 in 6.2 mi ENE 10.4 mph - N/A Rain Light Rain
9:00 AM 48.2 °F - 42.8 °F 82% 29.80 in 6.2 mi East 9.2 mph - N/A   Scattered Clouds
9:30 AM 50.0 °F - 42.8 °F 76% 29.83 in 6.2 mi East 8.1 mph - N/A   Partly Cloudy
10:00 AM 52 °F - 43 °F 63% 29.83 in 19 mi East 8.9 mph - -   Partly Cloudy
10:00 AM 51.8 °F - 44.6 °F 76% 29.83 in 6.2 mi ESE 8.1 mph - N/A   Scattered Clouds
10:30 AM 51.8 °F - 44.6 °F 76% 29.80 in 6.2 mi ENE 9.2 mph - N/A Rain Light Rain
11:00 AM 51.8 °F - 42.8 °F 71% 29.83 in 6.2 mi East 9.2 mph - N/A Rain Light Rain
11:30 AM 50.0 °F - 44.6 °F 82% 29.80 in 6.2 mi ENE 9.2 mph - N/A   Scattered Clouds
12:00 PM 50.0 °F - 48.2 °F 94% 29.80 in 6.2 mi ENE 8.1 mph - N/A   Mostly Cloudy
12:30 PM 50.0 °F - 46.4 °F 87% 29.80 in 6.2 mi ENE 9.2 mph - N/A Rain Light Rain
1:00 PM 50 °F - 43 °F 69% 29.81 in 19 mi NE 11.2 mph - - Rain Light Rain
1:00 PM 50.0 °F - 42.8 °F 76% 29.80 in 6.2 mi NE 11.5 mph - N/A   Mostly Cloudy
1:30 PM 48.2 °F - 42.8 °F 82% 29.77 in 6.2 mi NNE 16.1 mph - N/A   Mostly Cloudy
2:00 PM 50.0 °F - 42.8 °F 76% 29.77 in 6.2 mi NNE 15.0 mph - N/A   Mostly Cloudy
2:30 PM 50.0 °F - 41.0 °F 71% 29.77 in 6.2 mi NNE 15.0 mph - N/A Rain Light Rain
3:00 PM 50.0 °F - 41.0 °F 71% 29.77 in 6.2 mi NNE 15.0 mph - N/A Rain Light Rain
3:30 PM 50.0 °F - 41.0 °F 71% 29.77 in 6.2 mi NNE 10.4 mph - N/A Rain Light Rain
4:00 PM 49 °F - 42 °F 70% 29.79 in 16 mi NNE 11.2 mph - - Rain Light Rain
4:00 PM 48.2 °F - 42.8 °F 82% 29.77 in 6.2 mi NNE 10.4 mph - N/A Rain Light Rain
4:30 PM 48.2 °F - 41.0 °F 76% 29.77 in 6.2 mi NNE 8.1 mph - N/A Rain Light Rain
5:00 PM 48.2 °F - 41.0 °F 76% 29.77 in 6.2 mi NNE 6.9 mph - N/A Rain Light Rain
5:30 PM 48.2 °F - 42.8 °F 82% 29.77 in 6.2 mi North 3.5 mph - N/A Rain Light Rain
6:00 PM 48.2 °F - 44.6 °F 87% 29.80 in 6.2 mi Variable 1.2 mph - N/A   Scattered Clouds
6:30 PM 46.4 °F - 46.4 °F 100% 29.80 in 6.2 mi Variable 1.2 mph - N/A   Mostly Cloudy
7:00 PM 48 °F - 46 °F 92% 29.82 in 12 mi WNW 4.5 mph - - Rain Light Rain
7:00 PM 46.4 °F 44.3 °F 46.4 °F 100% 29.80 in 6.2 mi WNW 4.6 mph - N/A Rain Light Rain
7:30 PM 48.2 °F - 46.4 °F 93% 29.80 in 6.2 mi WNW 5.8 mph - N/A Rain Light Rain
8:00 PM 48.2 °F - 46.4 °F 93% 29.80 in 6.2 mi WNW 4.6 mph - N/A Rain Light Rain
8:30 PM 48.2 °F - 44.6 °F 87% 29.80 in 6.2 mi North 3.5 mph - N/A Rain Light Rain
9:00 PM 48.2 °F - 44.6 °F 87% 29.80 in 6.2 mi NNW 3.5 mph - N/A Rain Light Rain
9:30 PM 48.2 °F - 41.0 °F 76% 29.80 in 6.2 mi NNW 4.6 mph - N/A Rain Light Rain
10:00 PM 48 °F - 42 °F 75% 29.83 in 16 mi NW 2.2 mph - - Rain Light Rain
10:00 PM 48.2 °F - 41.0 °F 76% 29.80 in 6.2 mi Variable 2.3 mph - N/A   Partly Cloudy
10:30 PM 50.0 °F - 39.2 °F 66% 29.80 in 6.2 mi North 10.4 mph - N/A   Partly Cloudy
11:00 PM 48.2 °F - 41.0 °F 76% 29.80 in 6.2 mi North 13.8 mph - N/A   Scattered Clouds
11:30 PM 48.2 °F - 41.0 °F 76% 29.80 in 6.2 mi NNE 13.8 mph - N/A   Scattered Clouds